Pine Ridge, SD

1:32 AM MDT on May 30, 2017 (GMT -0600)
Pine Ridge

Weather History for KIEN - October, 2014

Change the Weather History Date:

Wednesday, October 8, 2014

  Actual Average Record
Temperature  
Mean Temperature 55 °F 51 °F  
Max Temperature 75 °F 67 °F 81 °F (2003)
Min Temperature 35 °F 35 °F 28 °F (2000)
Degree Days  
Heating Degree Days 10 14  
Month to date heating degree days 119 101  
Since 1 July heating degree days 341 323  
Cooling Degree Days 0 0  
Month to date cooling degree days 0 0  
Year to date cooling degree days 479 714  
Growing Degree Days 4 (Base 50)    
Moisture  
Dew Point 41 °F    
Average Humidity 65    
Maximum Humidity 92    
Minimum Humidity 38    
Precipitation  
Precipitation 0.00 in 0.03 in 0.72 in (2011)
Month to date precipitation 0.29 0.34  
Year to date precipitation 21.13 15.74  
Sea Level Pressure  
Sea Level Pressure 29.99 in    
Wind  
Wind Speed 7 mph (WSW)    
Max Wind Speed 26 mph    
Max Gust Speed 32 mph    
Visibility 10 miles    
Events      
T = Trace of Precipitation, MM = Missing Value Source: NWS Daily Summary

Daily Weather History Graph

Daily Weather History Graph

Search for Another Location

Airport or City:

Trip Planner

Search our weather history database for the weather conditions in past years. The results will help you decide how hot, cold, wet, or windy it might be!

Date:

Astronomy

Oct. 08, 2014 Rise Set
Actual Time 6:55 AM MDT 6:18 PM MDT
Civil Twilight 6:27 AM MDT 6:47 PM MDT
Nautical Twilight 5:54 AM MDT 7:20 PM MDT
Astronomical Twilight 5:21 AM MDT 7:53 PM MDT
Moon 6:34 PM MDT (10/8) 7:04 AM MDT (10/8)
Length of Visible Light 12h 20m
Length of Day
11h 23m
Full, 100% of the Moon is Illuminated
Oct 8
Full
Oct 15
Last Quarter
Oct 23
New
Oct 30
First Quarter
Nov 6
Full

Hourly Weather History & Observations

Time (MDT) Temp. Windchill Dew Point Humidity Pressure Visibility Wind Dir Wind Speed Gust Speed Precip Events Conditions
12:52 AM 36.0 °F - 33.1 °F 89% 30.08 in 10.0 mi Calm Calm - N/A   Clear
1:52 AM 37.9 °F 35.5 °F 36.0 °F 93% 30.08 in 10.0 mi East 3.5 mph - N/A   Overcast
2:52 AM 41.0 °F - 35.1 °F 79% 30.06 in 10.0 mi Calm Calm - N/A   Scattered Clouds
3:52 AM 39.0 °F - 36.0 °F 89% 30.06 in 10.0 mi Calm Calm - N/A   Partly Cloudy
4:52 AM 41.0 °F 39.0 °F 35.1 °F 79% 30.05 in 10.0 mi NW 3.5 mph - N/A   Clear
5:52 AM 45.0 °F 43.5 °F 35.1 °F 68% 30.05 in 10.0 mi NW 3.5 mph - N/A   Mostly Cloudy
6:52 AM 48.9 °F - 36.0 °F 61% 30.05 in 10.0 mi SSW 5.8 mph - N/A   Clear
7:52 AM 52.0 °F - 36.0 °F 54% 30.05 in 10.0 mi South 18.4 mph - N/A   Scattered Clouds
8:52 AM 54.0 °F - 37.0 °F 53% 30.06 in 10.0 mi South 6.9 mph - N/A   Mostly Cloudy
9:52 AM 57.0 °F - 37.9 °F 49% 30.03 in 10.0 mi South 21.9 mph 28.8 mph N/A   Partly Cloudy
10:52 AM 61.0 °F - 41.0 °F 48% 30.02 in 10.0 mi SSW 16.1 mph 24.2 mph N/A   Clear
11:52 AM 66.0 °F - 44.1 °F 45% 29.99 in 10.0 mi SSW 13.8 mph - N/A   Clear
12:52 PM 70.0 °F - 45.0 °F 41% 29.95 in 10.0 mi SW 11.5 mph - N/A   Clear
1:52 PM 72.0 °F - 46.0 °F 40% 29.91 in 10.0 mi WNW 6.9 mph - N/A   Clear
2:52 PM 73.9 °F - 46.0 °F 37% 29.89 in 10.0 mi West 5.8 mph - N/A   Clear
3:52 PM 73.9 °F - 46.0 °F 37% 29.88 in 10.0 mi West 5.8 mph - N/A   Clear
4:52 PM 73.9 °F - 46.0 °F 37% 29.88 in 10.0 mi WNW 4.6 mph - N/A   Clear
5:52 PM 69.1 °F - 48.0 °F 47% 29.89 in 10.0 mi NNW 3.5 mph - N/A   Clear
6:52 PM 59.0 °F - 46.9 °F 64% 29.92 in 10.0 mi North 6.9 mph - N/A   Clear
7:52 PM 55.0 °F - 45.0 °F 69% 29.95 in 10.0 mi East 8.1 mph - N/A   Clear
8:52 PM 50.0 °F - 42.1 °F 74% 29.97 in 10.0 mi NE 5.8 mph - N/A   Clear
9:52 PM 46.9 °F - 41.0 °F 80% 29.99 in 10.0 mi ENE 5.8 mph - N/A   Clear
10:52 PM 44.1 °F 41.5 °F 39.9 °F 85% 30.00 in 10.0 mi ENE 4.6 mph - N/A   Clear
11:52 PM 39.9 °F - 37.9 °F 93% 30.01 in 10.0 mi Calm Calm - N/A   Clear